This demonstration page uses our WeatherBlox Daily Observations layout. Learn more.

Left ArrowRight Arrow

41.12389, -100.76542

Hourly Observations for March 17, 2019

Temp ( °F °C ) Dew Point ( °F °C ) Humidity (%) Winds ( mph kmh ) Pressure ( in mb ) Visibility ( mi km ) Precip ( " mm )
12:53 am 00:53 Clear 24 -4.4 18 -7.8 77 77 Calm 30.39 1029 10 16 0.00 0.00
1:53 am 01:53 Clear 23 -5 18 -7.8 81 81 Calm 30.38 1029 10 16 0.00 0.00
2:53 am 02:53 Clear 22 -5.6 18 -7.8 85 85 Calm 30.37 1029 10 16 0.00 0.00
3:53 am 03:53 Clear 22 -5.6 18 -7.8 85 85 Calm 30.36 1028 10 16 0.00 0.00
4:53 am 04:53 Clear 20 -6.7 17 -8.3 89 89 NNW 3 6 30.34 1028 10 16 0.00 0.00
5:53 am 05:53 Clear 22 -5.6 18 -7.8 85 85 Calm 30.35 1028 10 16 0.00 0.00
6:53 am 06:53 Clear 22 -5.6 18 -7.8 85 85 Calm 30.35 1028 10 16 0.00 0.00
7:53 am 07:53 Sunny 21 -6.1 18 -7.8 88 88 NNW 3 6 30.38 1029 10 16 0.00 0.00
8:53 am 08:53 Sunny 26 -3.3 22 -5.6 84 84 Calm 30.39 1029 10 16 0.00 0.00
9:53 am 09:53 Sunny 32 0 24 -4.4 73 73 Calm 30.38 1029 10 16 0.00 0.00
10:53 am 10:53 Sunny 44 6.7 24 -4.4 45 45 SW 10 17 30.35 1028 10 16 0.00 0.00
11:53 am 11:53 Sunny 48 8.9 28 -2.2 46 46 WSW 16 26 30.32 1027 10 16 0.00 0.00
12:53 pm 12:53 Sunny 52 11.1 29 -1.7 41 41 W 15 24 30.31 1027 10 16 0.00 0.00
1:53 pm 13:53 Sunny 54 12.2 31 -0.6 42 42 NW 13 20 30.31 1026 10 16 0.00 0.00
2:53 pm 14:53 Sunny 57 13.9 28 -2.2 33 33 NW 14 22 30.28 1025 10 16 0.00 0.00
3:53 pm 15:53 Sunny 58 14.4 23 -5 26 26 N 15 24 30.27 1025 10 16 0.00 0.00
4:53 pm 16:53 Sunny 57 13.9 25 -3.9 29 29 NNE 18 30 30.29 1026 10 16 0.00 0.00
5:53 pm 17:53 Sunny 54 12.2 24 -4.4 31 31 N 17 28 30.31 1026 10 16 0.00 0.00
6:53 pm 18:53 Sunny 50 10 23 -5 35 35 NNE 15 24 30.35 1028 10 16 0.00 0.00
7:53 pm 19:53 Clear 43 6.1 24 -4.4 47 47 NNE 9 15 30.39 1029 10 16 0.00 0.00
8:53 pm 20:53 Clear 38 3.3 27 -2.8 65 65 NE 12 19 30.42 1030 10 16 0.00 0.00
9:53 pm 21:53 Clear 34 1.1 26 -3.3 73 73 ENE 8 13 30.44 1031 10 16 0.00 0.00
10:53 pm 22:53 Clear 29 -1.7 23 -5 78 78 NNE 3 6 30.45 1031 10 16 0.00 0.00
11:53 pm 23:53 Clear 28 -2.2 23 -5 81 81 ENE 8 13 30.45 1031 10 16 0.00 0.00

Powered by AerisWeather